Voltar ao catálogo

TIANZHOU 10

AtivoCiênciaVLEO
NORAD 69049·PAYLOAD·🇨🇳 China

Lançado May 11, 2026 de Wenchang Space Launch Site

Loading…

Próximas Passagens (próximas 24 horas)

TLE

AtualizadoSource: Space-Track

Época: Sep 14, 2026, 21:42 UTC

1 69049U 26102A   26257.90474193  .00020019  00000-0  24464-3 0  9993
2 69049  41.4676 137.2952 0002677 279.5609  80.4927 15.59940613308012

Acompanhe TIANZHOU 10 em tempo real com AllMySat

Download on the App Store